Preview of NWS' New Version of Forecast
This preview is not operational and should not be used for support decisions.

Regional Weather Roundup (RWR)

Issued by Kansas City/Pleasant Hill, MO (EAX)

                            
000
ASUS43 KEAX 160810
RWREAX

WEATHER ROUNDUP FOR EASTERN KANSAS AND NORTHWEST MISSOURI
NATIONAL WEATHER SERVICE KANSAS CITY/PLEASANT HILL MO
300 AM CDT TUE OCT 16 2018

KSZ040-057-103>105-MOZ028-029-037-043-160900-
...KANSAS CITY METROPOLITAN AREA...
  
CITY           SKY/WX    TMP DP  RH WIND       PRES   REMARKS
K.C. INTL      CLEAR     32  28  85 SW7       30.32S WCI  26          
K.C. DOWNTOWN  CLEAR     35  30  82 CALM      30.34R                  
LEES SUMMIT    CLOUDY    34  31  88 SW5       30.33S WCI  30          
OLATHE - IXD   CLEAR     30  28  92 S5        30.34S WCI  25          
OLATHE - OJC   CLEAR     29  29 100 CALM      30.33S                  
LAWRENCE       CLEAR     27  25  92 CALM      30.34S                  

$$
 
MOZ001>008-011>017-020>025-030>033-038>040-044>046-053-054-160900-
...NORTHERN AND CENTRAL MISSOURI...
  
CITY           SKY/WX    TMP DP  RH WIND       PRES   REMARKS
ST. JOSEPH     CLEAR     30  30 100 CALM      30.31S                  
WARRENSBURG    CLOUDY    30  30 100 S3        30.35S                  
WHITEMAN AFB   CLEAR     29  27  91 S6        30.31R WCI  23          
CLINTON        CLOUDY    28  28 100 CALM      30.36F FOG              
SEDALIA        CLOUDY    31  31 100 SW7       30.36S WCI  24          
WARSAW         NOT AVBL                                               
CHILLICOTHE      N/A     34  30  85 CALM      30.32S                  
KIRKSVILLE     CLEAR     31  29  92 W5        30.30S WCI  26          

$$

MOZ041-047>049-056>058-063>065-088>090-097-160900-
...EASTERN AND SOUTHERN MISSOURI...
  
CITY           SKY/WX    TMP DP  RH WIND       PRES   REMARKS
ST. LOUIS INTL MOCLDY    38  36  92 CALM      30.35S                  
SPIRIT OF STL  CLOUDY    35  34  96 W3        30.34F                  
COLUMBIA       CLOUDY    34  30  85 SW3       30.34S                  
JEFFERSON CITY FOG       33  32  96 CALM      30.36S VSB 1/4          
ROLLA          PTCLDY    35  32  88 CALM      30.35R                  
OSAGE BEACH    PTCLDY    32  31  96 CALM      30.37S                  
SPRINGFIELD    PTCLDY    37  33  85 NW3       30.34S                  
BRANSON        CLOUDY    37  37 100 CALM      30.34S                  
JOPLIN         CLOUDY    34  33  96 CALM      30.36F                  
WEST PLAINS    PTCLDY    38  35  89 N5        30.33F WCI  34          

$$

IAZ060-094-KSZ022-034>040-054-083-096-NEZ052-066-093-160900- 
...KANSAS...SOUTHEAST NEBRASKA AND IOWA...
  
CITY           SKY/WX    TMP DP  RH WIND       PRES   REMARKS
TOPEKA         CLEAR     30  30 100 CALM      30.33F                  
MANHATTAN      CLEAR     28  27  96 CALM      30.33R                  
EMPORIA        CLEAR     29  26  89 S7        30.34S WCI  22          
CHANUTE        CLEAR     32  32 100 CALM      30.36F                  
WICHITA        CLEAR     31  30  96 W3        30.35S                  
OMAHA          CLEAR     37  27  67 S6        30.22S WCI  32          
LINCOLN        CLEAR     31  26  82 S8        30.25S WCI  23          
FALLS CITY     CLEAR     30  27  88 S3        30.28F                  
LAMONI         CLEAR     30  27  88 SW9       30.25F WCI  22          
DES MOINES     CLEAR     34  28  79 SW8       30.21F WCI  27          

$$